AirNav   Everest Fuels
 
 648 users online  

3W2 Put in Bay Airport
Put In Bay, Ohio, USA

GOING TO PUT IN BAY?


FAA INFORMATION EFFECTIVE 27 FEBRUARY 2020

Location

FAA Identifier: 3W2
Lat/Long: 41-38-12.0000N 082-49-42.0000W
41-38.200000N 082-49.700000W
41.6366667,-82.8283333
(estimated)
Elevation: 595 ft. / 181.4 m (surveyed)
Variation: 07W (2000)
From city: 1 mile SW of PUT IN BAY, OH
Time zone: UTC -5 (UTC -4 during Daylight Saving Time)
Zip code: 43456

Airport Operations

Airport use: Open to the public
Activation date: 12/1938
Control tower: no
ARTCC: CLEVELAND CENTER
FSS: CLEVELAND FLIGHT SERVICE STATION
NOTAMs facility: CLE (NOTAM-D service available)
Attendance: UNATNDD
Wind indicator: yes
Segmented circle: yes
Beacon: white-green (lighted land airport)
Operates sunset to sunrise.
Landing fee: yes, PARKING/RAMP FEES ARE COLLECTED FOR ALL PVT AND COML ACFT. ALL PILOTS ARE RQRD TO CHECK INTO THE ARPT OFFICE AT THE TIME OF ARRIVAL. NO TIE-DOWN ROPES PRVDD; BRING YOUR OWN ROPES. ALL ACFT RQRD TO SHUT DOWN ENGINE(S) WHEN ENPLANING/DEPLANING PAX.

Airport Communications

CTAF/UNICOM: 122.8
WX AWOS-3 at PCW (7 nm S): 118.775 (419-734-9955)

Nearby radio navigation aids

VOR radial/distance  VOR name  Freq  Var
DJBr304/34.3DRYER VOR/DME113.6005W
YQGr186/36.8WINDSOR VOR/DME113.8006W
CRLr134/37.4CARLETON VOR/DME115.7003W
VWVr075/38.0WATERVILLE VOR/DME113.1002W

 
NDB name  Hdg/Dist  Freq  Var  ID
PORT CLINTON021/7.342307WPCW .--. -.-. .--
GROSSE ILE160/31.441907WRYS .-. -.-- ...
TIFFIN033/36.926905WTII - .. ..

Airport Services

Parking: hangars and tiedowns
Airframe service: MAJOR
Powerplant service: MAJOR

Runway Information

Runway 3/21

Dimensions: 2870 x 75 ft. / 875 x 23 m
Surface: asphalt, in excellent condition
RUNWAY 3  RUNWAY 21
Latitude: 41-38.001702N41-38.398105N
Longitude: 082-49.870983W082-49.528005W
Elevation: 592.2 ft.594.5 ft.
Traffic pattern: rightleft
Displaced threshold: 450 ft.657 ft.
Markings: basic, in good conditionbasic, in good condition
Runway end identifier lights: nono
Touchdown point: yes, no lightsyes, no lights
Obstructions: 50 ft. trees, 405 ft. from runway, 140 ft. both sides of centerline, 4:1 slope to clear
+0-5 FT FENCE 200 FT FM THLD 125R, EXT TO 250 FM DTHLD 125 R
5 ft. fence, 201 ft. from runway, 120 ft. right of centerline
+5 FENCE 200 FT FM THLD 120R, EXT TO DTHLD 125 R

Airport Ownership and Management from official FAA records

Ownership: Publicly-owned
Owner: PUT IN BAY TOWNSHIP PORT AUTH
PO BOX 278
PUT IN BAY, OH 43456
Phone 419-285-3371
Manager: ROSANN KEISER
PO BOX 278
PUT IN BAY, OH 43456
Phone 419-285-3371
ADNL CTC: PIBTPORTAUTHORITY@FRONTIER.COM

Airport Operational Statistics

Aircraft based on the field: 8
Single engine airplanes: 8
    
Aircraft operations: avg 41/day *
48% air taxi
42% transient general aviation
10% local general aviation
* for 12-month period ending 10 August 2018

Additional Remarks

FOR CD CTC CLEVELAND APCH AT 216-352-2323
EXPC MDT TURBC ON DEP/APCH WHEN WIND EXCEEDS 10 KT.
ACFT LNDG RWY 21 OR DEP RWY 03 REMAIN 1000 FT CLEAR OF PERRY'S MONUMENT 352 FT AGL/942 FT MSL 1-1/2 MILES NE OF ARPT.
ACFT OPS PROHIBITED DUSK-DAWN.
HELIPAD IS FOR TOUCHDOWN, LOADING AND LIFT OFF ONLY - PARK ON GRASS, W, SW OF HELIPAD.
DEER, BIRDS & OTHER WILDLIFE INVOF APRT.
DECOY COYOTE NEAR MOVEMENT AREAS.

Instrument Procedures

There are no published instrument procedures at 3W2.

Some nearby airports with instrument procedures:

KPCW - Erie-Ottawa International Airport (7 nm S)
S24 - Sandusky County Regional Airport (23 nm SW)
14G - Fremont Airport (24 nm SW)
5A1 - Norwalk-Huron County Airport (27 nm SE)
KTDZ - Toledo Executive Airport (30 nm W)
 
Loc | Ops | Rwys | IFR | FBO | Links
Com | Nav | Svcs | Stats | Notes
Area around 3W2 (Put in Bay Airport)
 
Road maps at: MapQuest Bing Google
 
Aerial photo
WARNING: Photo may not be current or correct
Aerial photo of 3W2 (Put in Bay Airport)
Photo by David Newcomer
Photo taken 22-Sep-2017
from 3,000' altitude looking north.

Do you have a better or more recent aerial photo of Put in Bay Airport that you would like to share? If so, please send us your photo.

 
Sectional chart

 
Airport distance calculator
Flying to Put in Bay Airport? Find the distance to fly.

From to 3W2

Sunrise and sunset
Times for 28-Feb-2020
 Local
(UTC-5)
 Zulu
(UTC)
Morning civil twilight06:4111:41
Sunrise07:0912:09
Sunset18:1923:19
Evening civil twilight18:4723:47

Current date and time
Zulu (UTC)  28-Feb-2020 06:30:05
Local (UTC-5)  28-Feb-2020 01:30:05
 
METAR
KPCW 
7nm S 
280615Z AUTO 26009KT 10SM BKN049 M08/M10 A2996 RMK AO2
TAF
CYQG 
39nm N 
280538Z 2806/2906 27012G22KT P6SM OVC040 TEMPO 2806/2809 6SM -SN FM281500 28013G23KT P6SM -SHSN BKN030 FM282000 27015G25KT 4SM -SHSN OVC030 FM290100 29012G22KT 3SM -SHSN OVC025 RMK FCST BASED ON AUTO OBS. NXT FCST BY 281200Z
KDTW 
42nm NW 
280520Z 2806/2912 28013G20KT P6SM OVC050 FM280900 26013KT P6SM SCT045 FM281400 28015G25KT P6SM BKN045
KTOL 
44nm W 
271938Z 2720/2818 28014G28KT P6SM SCT025 BKN040 TEMPO 2720/2722 2SM -SHSN OVC025 FM280000 27010KT P6SM SCT025 BKN100 FM280300 27006KT P6SM BKN025 FM281500 28010G18KT P6SM SCT025 BKN035
KCLE 
46nm E 
280539Z 2806/2912 26012KT 6SM -SHSN BKN035 FM280900 26012KT 5SM -SHSN BKN025 FM281600 26014G25KT P6SM OVC025 FM281900 26016G28KT P6SM VCSH OVC035 FM290000 28013G26KT 5SM -SHSN OVC035 FM290900 29012G24KT P6SM OVC025
KDET 
47nm N 
280520Z 2806/2906 28013G20KT P6SM OVC050 FM280900 26013KT P6SM SCT045 FM281400 28015G25KT P6SM BKN045
KYIP 
48nm NW 
280209Z 2802/2824 28013G20KT P6SM OVC050 FM280700 26013KT P6SM SCT045 FM281400 28015G25KT P6SM BKN045
NOTAMs
Click for the latest NOTAMs
NOTAMs are issued by the DoD/FAA and will open in a separate window not controlled by AirNav.

 

 
 

Aviation Businesses, Services, and Facilities

  
 Business Name 
 
 Contact 
 
 Services / Description 
 
Distance
 
Comments
  
Put In Bay Airport 419-351-5166
no information available

If you are affiliated with Put In Bay Airport and would like to show here your services, contact info, web link, logo, and more, click here
on airport  
   1 read write
 

Getting Around: Taxi, Limo, Rental Cars, Mass Transit

  
 Business Name 
 
 Contact 
 
Services / Description
 
Comments
  
Erie Island Carts 419-285-5278
[web site]
[email]
Ground transportation

More info about Erie Island Carts
 
   write
 

Where to Eat: Catering, Restaurants, Food shops

  
 Business Name 
 
 Contact 
 
 Services / Description 
 
Distance
 
Comments
  
The Skyway 419-285-4331
no information available

If you are affiliated with The Skyway and would like to show here your services, contact info, web link, logo, and more, click here
on airport  
   write
 

Would you like to see your business listed on this page?

 If your business provides an interesting product or service to pilots, flight crews, aircraft, or users of the Put in Bay Airport, you should consider listing it here.  To start the listing process, click on the button below
 
Add a business
 

Other Pages about Put in Bay Airport

Put-in-Bay Airport
 
Update a link
 
Copyright © AirNav, LLC. All rights reserved. Privacy Policy  Contact